www.pogodaiklimat.ru

Погода и климат >> Архив погоды >> Южная Африка >> Пхалаборва


ПОГОДА в Пхалаборве

  • Прогноз погоды в Пхалаборве
  • Монитор погоды в Пхалаборве

АРХИВ ПОГОДЫ в Пхалаборве

Время (UTC), дата Ветер
(напр.,м/с)
 
Видим.   Явления Облачность Т
(С)
Тd
(С)
f
(%)
Тe
(С)
Тes
(С)
Комфортность P
(гПа)
Po
(гПа)
Тmin
(С)
Tmax
(С)
R
(мм)
R24
(мм)
S
(см)
12 16.09 СВ 3 н/о н/о +30.4 +14.7 38 +32 +32 жарко 1022.3 952.8 +16.8 +30.7
15 16.09 В 3 н/о н/о +29.8 +13.4 37 +31 +31 жарко 1022.0 952.4 +29.3 +31.5
18 16.09 штиль 0 н/о н/о +25.0 +12.7 46 +27 +27 жарко 1025.4 954.5 +24.8 +31.5
21 16.09 ЮЗ 1 н/о н/о +23.5 +13.5 53 +26 +26 жарко 1027.3 955.9 +21.8 +31.5
00 17.09 штиль 0 н/о н/о +19.8 +13.8 68 +21 +21 комфорт 1027.6 955.3 +19.8 +31.5
03 17.09 ЮЗ 1 н/о н/о +18.8 +13.7 72 +21 +21 комфорт 1027.6 955.1 +18.5 +31.5
06 17.09 СВ 2 н/о н/о +23.3 +14.9 59 +27 +27 душно 1028.6 957.1 +17.9
09 17.09 С 2 н/о н/о +27.9 +14.4 44 +30 +30 жарко 1025.7 955.4 +17.9 +29.0
12 17.09 СВ 3 н/о н/о +32.9 +12.3 29 +33 +33 жарко 1021.1 952.3 +17.9 +33.3
15 17.09 В 4 н/о н/о +31.3 +10.4 28 +31 +31 жарко 1020.8 951.6 +31.2 +33.8
18 17.09 штиль 0 н/о н/о +25.7 +12.4 44 +27 +27 жарко 953.6 +25.7 +33.8
21 17.09 штиль 0 н/о н/о +21.6 +13.6 60 +24 +24 комфорт 1026.1 954.4 +21.6 +33.8
00 18.09 ЮЗ 1 н/о н/о +20.0 +13.0 64 +23 +23 комфорт 1026.1 954.0 +19.4 +33.8
03 18.09 штиль 0 н/о н/о +18.6 +12.6 68 +19 +19 1026.8 954.3 +18.0 +33.8
06 18.09 штиль 0 н/о н/о +27.9 +13.3 41 +30 +30 жарко 1026.2 955.9 +17.8
09 18.09 СВ 1 н/о н/о +32.3 +9.5 25 +32 +32 жарко 1024.6 955.4 +17.8 +32.7
12 18.09 С 4 н/о н/о +34.1 +6.8 18 +32 +32 жарко 1020.7 952.2 +17.8 +35.5
15 18.09 СВ 3 н/о н/о +33.2 +5.3 17 +31 +31 жарко 1020.3 951.6 +33.2 +36.2
18 18.09 ЮЗ 2 н/о н/о +27.0 +7.2 28 +27 +27 жарко 953.4 +26.1 +36.2
21 18.09 ЮЗ 2 н/о н/о +23.9 +6.8 33 +24 +24 комфорт 954.7 +22.0 +36.2
00 19.09 штиль 0 н/о н/о +19.1 +7.0 45 +20 +20 1027.6 955.2 +19.1 +36.2
03 19.09 ЮЗ 3 н/о н/о +19.7 +14.5 72 +22 +22 комфорт 1030.5 958.0 +18.6 +36.2
06 19.09 ЮВ 6 н/о н/о +19.1 +14.2 73 +20 +20 1033.9 961.0 +18.6
09 19.09 ЮВ 4 н/о н/о +23.6 +13.9 54 +26 +26 жарко 1032.2 960.5 +18.6 +24.0
12 19.09 В 3 н/о н/о +28.3 +13.6 40 +30 +30 жарко 1026.8 956.6 +18.6 +29.2
15 19.09 В 3 н/о н/о +27.7 +12.7 40 +29 +29 жарко 1026.1 955.8 +27.7 +29.7
21 19.09 З 1 н/о н/о +21.2 +13.2 60 +24 +24 комфорт 1030.5 958.4 +21.1 +29.7
00 20.09 В 1 н/о н/о +20.7 +14.2 66 +24 +24 комфорт 1030.4 958.1 +20.7 +29.7
03 20.09 ЮВ 2 н/о н/о +19.1 +15.4 79 +21 +21 комфорт 1031.3 958.6 +19.1 +29.7
06 20.09 В 2 н/о н/о +20.1 +14.9 72 +23 +23 комфорт 960.1 +18.8
09 20.09 С 2 н/о н/о +25.6 +13.9 48 +28 +28 жарко 957.2 +18.8 +26.3
12 20.09 СВ 3 н/о н/о +31.3 +10.9 28 +31 +31 жарко 1021.5 952.3 +18.8 +31.7
15 20.09 СВ 3 н/о н/о +30.2 +10.0 29 +30 +30 жарко 951.3 +30.2 +32.6
21 20.09 ЮЗ 1 н/о н/о +22.1 +10.7 48 +24 +24 комфорт 1024.3 952.8 +20.8 +32.6
00 21.09 ЮЗ 1 н/о н/о +19.0 +11.6 62 +21 +21 комфорт 1024.3 952.1 +18.9 +32.6
03 21.09 ЮЗ 1 н/о н/о +17.9 +11.9 68 +19 +19 951.8 +17.4 +32.6
06 21.09 В 1 н/о н/о +25.4 +12.4 44 +27 +27 жарко 953.1 +16.8
09 21.09 В 2 н/о н/о +30.3 +11.6 32 +31 +31 жарко 1021.1 951.7 +16.8 +30.5
12 21.09 СВ 3 н/о н/о +32.9 +8.1 22 +32 +32 жарко 1016.3 947.8 +16.8 +33.4
15 21.09 СВ 3 н/о н/о +31.5 +6.2 20 +30 +30 жарко 946.8 +31.5 +34.2
21 21.09 ЮЗ 1 н/о н/о +22.1 +9.1 43 +23 +23 комфорт 1020.7 949.5 +21.7 +34.2
00 22.09 ЮЗ 2 н/о н/о +21.1 +9.1 46 +22 +22 комфорт 1019.8 948.4 +18.9 +34.2
03 22.09 ЮЗ 1 н/о н/о +17.8 +9.7 59 +19 +19 948.0 +17.2 +34.2
06 22.09 штиль 0 н/о н/о +25.9 +10.7 38 +27 +27 жарко 1020.0 949.7 +17.0
09 22.09 В 2 н/о н/о +31.4 +9.9 27 +31 +31 жарко 1017.6 948.7 +17.0 +31.9
15 22.09 СВ 2 н/о н/о +33.0 +5.1 17 +31 +31 жарко 1011.8 943.6 +33.0 +35.6
21 22.09 ЮЗ 2 н/о н/о +24.6 +6.5 31 +25 +25 комфорт 1017.4 947.0 +22.2 +35.6
00 23.09 З 3 н/о н/о +21.7 +7.6 40 +23 +23 комфорт 1017.7 946.6 +19.9 +35.6
03 23.09 ЮВ 5 н/о н/о +23.4 +7.6 36 +24 +24 комфорт 1019.4 948.6 +18.8 +35.6
06 23.09 Ю 3 н/о н/о +20.6 +15.2 71 +24 +24 комфорт 1025.2 953.3 +18.8
09 23.09 ЮВ 5 н/о н/о +24.4 +14.6 54 +27 +27 жарко 1024.8 953.8 +18.8 +26.2

 

Местоположение метеостанции Пхалаборва (Южная Африка): широта -23.94 долгота 31.16 высота над уровнем моря 400 м.

В архиве по умолчанию представлена погода в Пхалаборве за последнюю неделю. Архивные данные за месяц целиком и за предыдущие месяцы, начиная с января 2011 года, Вы можете получить, выбрав интересующий диапазон дат из раскрывающегося списка и нажав кнопку "Ввод!".


*Определитесь, кто Вы:
робот инопланетянин человек

Внимание! Время в таблицах - всемирное. Для получения местного времени необходимо прибавить поправку, которая равна 2 ч.

Смотрите также архив погоды в соседних городах и на ближайших метеорологических станциях:

Погода в Хоэдспруите (Южная Африка) (47 км)
Погода на Базе ВВС Hoedspruit (Южная Африка) (50 км)
Погода в Вувулане (Свазиленд) (76 км)
Погода в Тзанеене (Южная Африка) (103 км)
Погода в Тзанеен-Греншоек (Южная Африка) (113 км)
Погода в Граскопе (Южная Африка) (115 км)
Погода в Граскоп-Скуле (Южная Африка) (115 км)
Погода в Скукузе (Южная Африка) (124 км)
Погода в Тхохояндоу (Южная Африка) (126 км)
Погода в Тхохояндоу (Южная Африка) (127 км)

Пояснения к столбцам:

Ветер - указаны скорость ветра в м/с - средняя за 10 мин, порывы в срок и между сроками (в фигурных скобках) и направление, откуда дует ветер: С - северный, СВ - северо-восточный, В - восточный, ЮВ - юго-восточный, Ю - южный, ЮЗ - юго-западный, З - западный, СЗ - северо-западный.
Видимость - горизонтальная дальность видимости в метрах или километрах. При видимости от 1 до 10 км при отсутствии осадков обычно наблюдается дымка, при ухудшении видимости до 1 км и менее - туман. В сухую погоду видимость может ухудшаться дымом, пылью или мглою.
Явления - указаны атмосферные явления, наблюдавшиеся в срок или в последний час перед сроком; фигурными скобками обозначены явления, наблюдавшиеся между сроками (за 1-3 часа до срока); квадратными скобками обозначены град или гололедные отложения с указанием их диаметра в мм.
Облачность - указаны через наклонную черту общая и нижняя облачность в баллах и высота нижней границы облаков в метрах; квадратными скобками обозначены формы облаков: Ci - перистые, Cs - перисто-слоистые, Cc - перисто-кучевые, Ac - высококучевые, As - высокослоистые, Sc - слоисто-кучевые, Ns - слоисто-дождевые, Cu - кучевые, Cb - кучево-дождевые. Подробнее классификацию облаков см. в Атласе облаков (PDF).
T - Температура воздуха - температура, измеренная на высоте 2 м над землей.
Td - Температура точки росы - температура, при понижении до которой содержащийся в воздухе водяной пар достигнет насыщения.
f - Относительная влажность воздуха - влажноcть воздуха, измеренная на высоте 2 м над землей.
Te - Эффективная температура - температура, которую ощущает одетый по сезону человек в тени. Характеристика душности погоды. При расчете учитывается влияние влажности воздуха и скорости ветра на теплоощущения человека.
Tes - Эффективная температура на солнце - температура, которую ощущает человек, с поправкой на солнечный нагрев. Характеристика знойности погоды. Зависит от высоты солнца над горизонтом, облачности и скорости ветра. Ночью, в пасмурную погоду, а также при ветре 12 м/с и более поправка равна нулю.
P - Атмосферное давление - приведенное к уровню моря атмосферное давление.
Po - Атмосферное давление - измеренное на уровне метеостанции атмосферное давление.
Tmin - Минимальная температура - минимум температуры воздуха на высоте 2 м над землей.
Tmax - Максимальная температура - максимум температуры воздуха на высоте 2 м над землей.
R - Количество осадков - Количество выпавших осадков за период времени, мм. При наведении курсора мыши на число - период времени, за который выпало указанное количество осадков.
R24 - Количество осадков - Количество выпавших осадков за 24 часа, мм.
S - Снежный покров - Высота снежного покрова, см. При наведении курсора мыши на число - состояние снежного покрова и степень покрытия местности в баллах.